Location: Clairmont
(55.2667°N, 118.8000°W)
Time: 14:12:16
(UTC+00:00)

Envisat - Pass Details

Date: 03 November 2020
Orbit: 764 x 766 km, 98.1° (Epoch: 03 December)

Event Time Altitude Azimuth Distance (km) Brightness Sun altitude
Rises 02:16:39 0° 210° (SSW) 3,226 6.7 -17.8°
Reaches altitude 10° 02:19:36 10° 228° (SW) 2,305 6.2 -18.2°
Maximum altitude 02:23:11 19° 273° (W) 1,764 5.9 -18.7°
Drops below altitude 10° 02:26:47 10° 318° (NW) 2,316 6.1 -19.2°
Sets 02:29:47 0° 336° (NNW) 3,248 6.6 -19.7°
